Home > Weather > Andernach > Past weeks

Flag for Germany Past Weather in Andernach, Rhineland-Palatinate, Germany — Yesterday and Last 2 Weeks

Now
63 °F

Mild.


Feels Like: 63 °F
Forecast: 55 / 75 °F
Wind: 6 mph from Northwest

Location: Buechel

Current Time: Jul 26, 2016 at 4:46:45 AM

Latest Report: Jul 26, 2016 at 3:20 AM


Visibility: 5 mi

Pressure: 30.15 "Hg

Humidity: 88%

Dew Point: 59 °F

Location of AndernachLocation

Past Weather in Andernach — Graph

°F

Andernach Temperature Yesterday

Maximum temperature yesterday: 75 °F (at 2:20 PM)
Minimum temperature yesterday: 63 °F (at 6:20 AM)
Average temperature yesterday: 69 °F

High & Low Weather Summary for the Past Weeks

 TemperatureHumidityPressure
High88 °F (Jul 20, 4:20 PM)100% (Jul 13, 5:20 AM)30.33 "Hg (Jul 13, 5:20 AM)
Low45 °F (Jul 15, 5:20 AM)38% (Jul 20, 4:20 PM)29.86 "Hg (Jul 11, 3:20 AM)
Average65 °F75%30.11 "Hg
* Reported Jul 11 3:20 AM — Jul 26 3:20 AM, Andernach, Weather by CustomWeather, © 2016

Note: Actual official high and low records may vary slightly from our data, if they occured in-between our weather recording intervals... More about our weather records

Advertising

Andernach Weather History for the Previous 24 Hours

Scroll right to see more
 ConditionsComfort  
Time TempWeatherWind HumidityBarometerVisibility
3:20 AM
Tue, Jul 26
63 °FMild.6 mph88%30.15 "Hg5 mi
2:20 AM63 °FMild.3 mph88%30.15 "Hg4 mi
1:20 AM63 °FMild.2 mph88%30.15 "Hg4 mi
12:20 AM64 °FMild.2 mph83%30.15 "Hg5 mi
11:20 PM
Mon, Jul 25
66 °FMild.5 mph83%30.15 "Hg5 mi
10:20 PM68 °FMild.3 mph73%30.15 "Hg5 mi
9:55 PM68 °FBroken clouds.6 mph73%30.15 "HgN/A
9:20 PM70 °FBroken clouds.7 mph73%30.15 "HgN/A
8:20 PM72 °FBroken clouds.6 mph69%30.12 "HgN/A
7:20 PM73 °FBroken clouds.6 mph61%30.12 "HgN/A
6:20 PM75 °FBroken clouds.2 mph57%30.12 "HgN/A
5:20 PM73 °FBroken clouds.7 mph61%30.12 "HgN/A
4:20 PM73 °FPartly sunny.6 mph61%30.12 "HgN/A
3:20 PM73 °FBroken clouds.8 mph61%30.12 "HgN/A
2:20 PM75 °FBroken clouds.7 mph57%30.12 "HgN/A
1:20 PM73 °FBroken clouds.6 mph57%30.15 "HgN/A
12:20 PM72 °FPartly sunny.6 mph65%30.15 "HgN/A
11:20 AM70 °FBroken clouds.3 mph69%30.15 "HgN/A
10:20 AM68 °FPartly sunny.3 mph73%30.15 "HgN/A
9:20 AM66 °FPartly sunny.5 mph73%30.15 "HgN/A
8:20 AM64 °FPartly sunny.1 mph78%30.12 "HgN/A
7:20 AM63 °FBroken clouds.6 mph83%30.12 "Hg5 mi
6:20 AM63 °FPassing clouds.6 mph88%30.12 "Hg5 mi
4:20 AM64 °FMild.7 mph83%30.12 "Hg4 mi
Weather by CustomWeather, © 2016

See weather overviewHow to use our weather pages